TimePDT,TemperatureF,Dew PointF,Humidity,Sea Level PressureIn,VisibilityMPH,Wind Direction,Wind SpeedMPH,Gust SpeedMPH,PrecipitationIn,Events,Conditions,WindDirDegrees,DateUTC
12:17 AM,39.2,39.2,100,30.14,2.5,NNW,4.6,-,N/A,,Mostly Cloudy,340,2013-10-08 07:17:00
12:20 AM,39.2,39.2,100,30.14,1.2,North,4.6,-,N/A,,Mostly Cloudy,350,2013-10-08 07:20:00
12:29 AM,39.2,39.2,100,30.14,0.5,North,5.8,-,N/A,Fog,Fog,350,2013-10-08 07:29:00
12:45 AM,37.4,37.4,100,30.14,0.2,North,6.9,-,N/A,Fog,Fog,360,2013-10-08 07:45:00
12:56 AM,37.9,37.9,100,30.14,0.2,North,5.8,-,N/A,Fog,Fog,350,2013-10-08 07:56:00
1:22 AM,37.4,37.4,100,30.14,0.2,North,9.2,-,N/A,Fog,Fog,350,2013-10-08 08:22:00
1:56 AM,37.9,37.9,100,30.14,0.2,North,10.4,17.3,N/A,Fog,Fog,350,2013-10-08 08:56:00
2:28 AM,37.4,37.4,100,30.14,0.5,North,9.2,18.4,N/A,Fog,Fog,360,2013-10-08 09:28:00
2:56 AM,37.0,37.0,100,30.13,1.0,North,12.7,21.9,N/A,,Mist,10,2013-10-08 09:56:00
3:05 AM,37.4,37.4,100,30.14,1.5,North,9.2,21.9,N/A,,Overcast,360,2013-10-08 10:05:00
3:12 AM,37.4,37.4,100,30.14,1.2,North,8.1,-,N/A,,Overcast,360,2013-10-08 10:12:00
3:18 AM,37.4,37.4,100,30.14,2.0,North,9.2,17.3,N/A,,Overcast,10,2013-10-08 10:18:00
3:27 AM,37.4,37.4,100,30.14,1.2,North,9.2,-,N/A,,Overcast,10,2013-10-08 10:27:00
3:31 AM,37.4,37.4,100,30.14,1.5,North,9.2,-,N/A,,Overcast,10,2013-10-08 10:31:00
3:37 AM,37.4,37.4,100,30.14,3.0,North,10.4,16.1,N/A,,Overcast,10,2013-10-08 10:37:00
3:40 AM,37.4,37.4,100,30.13,1.8,North,8.1,16.1,N/A,,Overcast,10,2013-10-08 10:40:00
3:43 AM,37.4,37.4,100,30.14,0.8,North,9.2,16.1,N/A,,Overcast,360,2013-10-08 10:43:00
3:51 AM,37.4,37.4,100,30.14,0.5,North,9.2,16.1,N/A,Fog,Fog,10,2013-10-08 10:51:00
3:56 AM,37.9,37.9,100,30.14,0.8,North,8.1,-,N/A,,Overcast,10,2013-10-08 10:56:00
4:09 AM,37.4,37.4,100,30.13,1.0,NNE,9.2,17.3,N/A,,Overcast,30,2013-10-08 11:09:00
4:12 AM,37.4,37.4,100,30.13,4.0,NNE,11.5,17.3,N/A,,Overcast,20,2013-10-08 11:12:00
4:34 AM,37.4,37.4,100,30.13,1.8,NNE,8.1,-,N/A,,Overcast,20,2013-10-08 11:34:00
4:46 AM,37.4,37.4,100,30.13,3.0,NNE,10.4,17.3,N/A,,Overcast,20,2013-10-08 11:46:00
4:56 AM,37.0,37.0,100,30.14,5.0,North,8.1,16.1,N/A,,Overcast,10,2013-10-08 11:56:00
5:06 AM,37.4,37.4,100,30.13,4.0,NNE,8.1,16.1,N/A,,Overcast,20,2013-10-08 12:06:00
5:18 AM,37.4,37.4,100,30.12,1.5,North,5.8,-,N/A,,Overcast,350,2013-10-08 12:18:00
5:25 AM,37.4,37.4,100,30.12,1.2,Variable,6.9,-,N/A,,Overcast,0,2013-10-08 12:25:00
5:39 AM,37.4,37.4,100,30.13,0.5,Variable,3.5,-,N/A,Fog,Fog,0,2013-10-08 12:39:00
5:56 AM,37.9,37.9,100,30.13,0.5,Calm,Calm,-,N/A,Fog,Fog,0,2013-10-08 12:56:00
6:05 AM,37.4,37.4,100,30.12,0.2,Variable,3.5,-,N/A,Fog,Fog,0,2013-10-08 13:05:00
6:56 AM,37.0,37.0,100,30.14,0.2,Variable,4.6,-,N/A,Fog,Fog,0,2013-10-08 13:56:00
7:45 AM,37.4,35.6,93,30.11,1.0,NNE,10.4,-,N/A,,Overcast,30,2013-10-08 14:45:00
7:47 AM,35.6,35.6,100,30.11,2.5,NNE,11.5,17.3,N/A,,Mostly Cloudy,20,2013-10-08 14:47:00
7:54 AM,35.6,35.6,100,30.11,10.0,NE,10.4,17.3,N/A,,Mostly Cloudy,40,2013-10-08 14:54:00
7:56 AM,36.0,35.1,97,30.15,10.0,NNE,9.2,17.3,N/A,,Scattered Clouds,30,2013-10-08 14:56:00
8:46 AM,37.4,37.4,100,30.12,1.8,Variable,3.5,-,N/A,,Partly Cloudy,0,2013-10-08 15:46:00
8:48 AM,37.4,37.4,100,30.12,0.5,Calm,Calm,-,N/A,Fog,Fog,0,2013-10-08 15:48:00
8:50 AM,37.4,37.4,100,30.12,0.2,North,3.5,-,N/A,Fog,Fog,350,2013-10-08 15:50:00
8:56 AM,37.9,37.9,100,30.16,0.2,Calm,Calm,-,N/A,Fog,Fog,0,2013-10-08 15:56:00
9:41 AM,39.2,39.2,100,30.12,0.8,NNE,5.8,-,N/A,,Mist,20,2013-10-08 16:41:00
9:43 AM,39.2,39.2,100,30.12,1.0,NNE,6.9,-,N/A,,Mist,20,2013-10-08 16:43:00
9:46 AM,39.2,37.4,93,30.12,2.0,Variable,6.9,-,N/A,,Mostly Cloudy,0,2013-10-08 16:46:00
9:53 AM,37.4,37.4,100,30.12,10.0,NNE,9.2,-,N/A,,Mostly Cloudy,30,2013-10-08 16:53:00
9:56 AM,37.9,37.0,97,30.15,10.0,NNE,6.9,-,N/A,,Mostly Cloudy,20,2013-10-08 16:56:00
10:10 AM,39.2,37.4,93,30.12,10.0,NNE,6.9,-,N/A,,Partly Cloudy,20,2013-10-08 17:10:00
10:56 AM,42.1,37.0,82,30.13,10.0,Variable,4.6,-,N/A,,Scattered Clouds,0,2013-10-08 17:56:00
11:26 AM,44.6,37.4,76,30.11,10.0,Calm,Calm,-,N/A,,Mostly Cloudy,0,2013-10-08 18:26:00
11:47 AM,44.6,37.4,76,30.11,10.0,Calm,Calm,-,N/A,,Mostly Cloudy,0,2013-10-08 18:47:00
11:56 AM,45.0,37.9,76,30.12,10.0,Calm,Calm,-,N/A,,Overcast,0,2013-10-08 18:56:00
12:06 PM,44.6,37.4,76,30.11,10.0,Calm,Calm,-,N/A,,Overcast,0,2013-10-08 19:06:00
12:28 PM,44.6,37.4,76,30.10,10.0,Calm,Calm,-,N/A,,Overcast,0,2013-10-08 19:28:00
12:56 PM,46.0,37.0,71,30.09,10.0,Calm,Calm,-,N/A,,Mostly Cloudy,0,2013-10-08 19:56:00
1:56 PM,46.9,37.9,71,30.06,10.0,Variable,3.5,-,N/A,,Mostly Cloudy,0,2013-10-08 20:56:00
2:07 PM,46.4,37.4,71,30.06,10.0,Variable,3.5,-,N/A,,Mostly Cloudy,0,2013-10-08 21:07:00
2:56 PM,45.0,39.0,80,30.06,10.0,Calm,Calm,-,N/A,,Overcast,0,2013-10-08 21:56:00
3:56 PM,43.0,37.9,82,30.05,10.0,Variable,3.5,-,N/A,,Overcast,0,2013-10-08 22:56:00
4:31 PM,42.8,41.0,93,30.02,10.0,Calm,Calm,-,0.00,,Overcast,0,2013-10-08 23:31:00
4:42 PM,42.8,39.2,87,30.01,10.0,Calm,Calm,-,0.00,,Overcast,0,2013-10-08 23:42:00
4:56 PM,43.0,39.9,89,30.03,10.0,Variable,3.5,-,0.00,,Overcast,0,2013-10-08 23:56:00
5:13 PM,42.8,39.2,87,30.01,10.0,Calm,Calm,-,N/A,,Overcast,0,2013-10-09 00:13:00
5:39 PM,41.0,39.2,93,30.00,10.0,Calm,Calm,-,N/A,,Overcast,0,2013-10-09 00:39:00
5:56 PM,41.0,39.9,96,30.02,8.0,Calm,Calm,-,N/A,,Overcast,0,2013-10-09 00:56:00
6:04 PM,41.0,39.2,93,29.99,1.2,Calm,Calm,-,0.00,Rain,Light Rain,0,2013-10-09 01:04:00
6:08 PM,41.0,39.2,93,29.99,0.8,Calm,Calm,-,0.00,Rain,Light Rain,0,2013-10-09 01:08:00
6:18 PM,39.2,39.2,100,29.99,0.2,Variable,3.5,-,0.00,Fog,Fog,0,2013-10-09 01:18:00
6:32 PM,39.2,39.2,100,29.98,0.5,Calm,Calm,-,0.00,Fog,Fog,0,2013-10-09 01:32:00
6:40 PM,39.2,39.2,100,29.98,0.2,Calm,Calm,-,0.00,Fog,Fog,0,2013-10-09 01:40:00
6:56 PM,39.9,39.9,100,30.01,0.2,Calm,Calm,-,0.00,Fog,Fog,0,2013-10-09 01:56:00
7:56 PM,39.0,39.0,100,30.00,0.2,Variable,4.6,-,N/A,Fog,Fog,0,2013-10-09 02:56:00
8:09 PM,39.2,39.2,100,29.97,0.5,Variable,3.5,-,N/A,Fog,Fog,0,2013-10-09 03:09:00
8:56 PM,39.0,39.0,100,29.99,0.2,Variable,3.5,-,0.02,Fog,Fog,0,2013-10-09 03:56:00
9:43 PM,37.4,37.4,100,29.96,0.5,Variable,3.5,-,0.02,Fog,Fog,0,2013-10-09 04:43:00
9:56 PM,37.9,37.9,100,29.98,0.5,Variable,6.9,-,0.02,Fog,Fog,0,2013-10-09 04:56:00
10:56 PM,37.0,37.0,100,29.96,0.5,Variable,5.8,-,0.00,Fog,Fog,0,2013-10-09 05:56:00
11:03 PM,37.4,37.4,100,29.94,0.5,Variable,3.5,20.7,N/A,Fog,Fog,0,2013-10-09 06:03:00
11:16 PM,37.4,37.4,100,29.94,0.2,Variable,3.5,-,N/A,Fog,Fog,0,2013-10-09 06:16:00
11:56 PM,36.0,36.0,100,29.94,0.5,North,8.1,20.7,N/A,Fog,Fog,350,2013-10-09 06:56:00